Tracking 28792 objects as of 23-Apr-2024
HD Live streaming from Space Station
objects crossing your sky now

SL-16 DEB

Track SL-16 DEB now!
10-day predictions


NORAD ID: 19658
Int'l Code: 1988-102E
Perigee: 845.8 km
Apogee: 1,133.8 km
Inclination: 71.0 °
Period: 104.7 minutes
Semi major axis: 7360 km
RCS: 0.0923 m2 (small)
Launch date: November 23, 1988
Source: Commonwealth of Independent States (former USSR) (CIS)
Launch site: TYURATAM MISSILE AND SPACE COMPLEX (TTMTR)

Note: This is SATELLITE DEBRIS
Your satellite tracking list
Your tracking list is empty




NASA's NSSDC Master Catalog

Two Line Element Set (TLE):
1 19658U 88102E   24113.38068767  .00000301  00000-0  31373-3 0  9998
2 19658  71.0211 207.9386 0195616  52.6603  12.3312 13.74726237775584
Source of the keplerian elements: AFSPC